﻿測定場所 (Monitoring sites),日付 (Measurement date),時間 (Measurement time),線量率 最大値 (max) μGy/h,線量率 最小値 (min) μGy/h,線量率 平均値 (average) μGy/h,
江東 (Koto),2014-11-30,23:01～24:00,0.0441,0.0375,0.0407,
江東 (Koto),2014-11-30,22:01～23:00,0.0412,0.0362,0.0381,
江東 (Koto),2014-11-30,21:01～22:00,0.0400,0.0356,0.0377,
江東 (Koto),2014-11-30,20:01～21:00,0.0394,0.0357,0.0373,
江東 (Koto),2014-11-30,19:01～20:00,0.0404,0.0347,0.0373,
江東 (Koto),2014-11-30,18:01～19:00,0.0394,0.0347,0.0374,
江東 (Koto),2014-11-30,17:01～18:00,0.0404,0.0353,0.0375,
江東 (Koto),2014-11-30,16:01～17:00,0.0400,0.0351,0.0372,
江東 (Koto),2014-11-30,15:01～16:00,0.0397,0.0354,0.0376,
江東 (Koto),2014-11-30,14:01～15:00,0.0394,0.0353,0.0373,
江東 (Koto),2014-11-30,13:01～14:00,0.0395,0.0351,0.0375,
江東 (Koto),2014-11-30,12:01～13:00,0.0403,0.0358,0.0375,
江東 (Koto),2014-11-30,11:01～12:00,0.0391,0.0353,0.0372,
江東 (Koto),2014-11-30,10:01～11:00,0.0392,0.0350,0.0373,
江東 (Koto),2014-11-30,09:01～10:00,0.0400,0.0353,0.0373,
江東 (Koto),2014-11-30,08:01～09:00,0.0398,0.0349,0.0373,
江東 (Koto),2014-11-30,07:01～08:00,0.0391,0.0353,0.0372,
江東 (Koto),2014-11-30,06:01～07:00,0.0398,0.0352,0.0376,
江東 (Koto),2014-11-30,05:01～06:00,0.0407,0.0352,0.0377,
江東 (Koto),2014-11-30,04:01～05:00,0.0404,0.0357,0.0377,
江東 (Koto),2014-11-30,03:01～04:00,0.0408,0.0350,0.0378,
江東 (Koto),2014-11-30,02:01～03:00,0.0407,0.0356,0.0374,
江東 (Koto),2014-11-30,01:01～02:00,0.0409,0.0350,0.0376,
江東 (Koto),2014-11-30,00:01～01:00,0.0399,0.0354,0.0376,
江東 (Koto),2014-11-29,23:01～24:00,0.0410,0.0351,0.0378,
江東 (Koto),2014-11-29,22:01～23:00,0.0399,0.0352,0.0376,
江東 (Koto),2014-11-29,21:01～22:00,0.0404,0.0352,0.0377,
江東 (Koto),2014-11-29,20:01～21:00,0.0397,0.0357,0.0375,
江東 (Koto),2014-11-29,19:01～20:00,0.0395,0.0359,0.0378,
江東 (Koto),2014-11-29,18:01～19:00,0.0393,0.0359,0.0375,
江東 (Koto),2014-11-29,17:01～18:00,0.0395,0.0352,0.0378,
江東 (Koto),2014-11-29,16:01～17:00,0.0399,0.0361,0.0377,
江東 (Koto),2014-11-29,15:01～16:00,0.0423,0.0365,0.0395,
江東 (Koto),2014-11-29,14:01～15:00,0.0491,0.0401,0.0441,
江東 (Koto),2014-11-29,13:01～14:00,0.0515,0.0431,0.0472,
江東 (Koto),2014-11-29,12:01～13:00,0.0512,0.0448,0.0468,
江東 (Koto),2014-11-29,11:01～12:00,0.0491,0.0429,0.0458,
江東 (Koto),2014-11-29,10:01～11:00,0.0445,0.0348,0.0383,
江東 (Koto),2014-11-29,09:01～10:00,0.0403,0.0345,0.0373,
江東 (Koto),2014-11-29,08:01～09:00,0.0398,0.0360,0.0375,
江東 (Koto),2014-11-29,07:01～08:00,0.0396,0.0362,0.0380,
江東 (Koto),2014-11-29,06:01～07:00,0.0405,0.0356,0.0380,
江東 (Koto),2014-11-29,05:01～06:00,0.0407,0.0351,0.0379,
江東 (Koto),2014-11-29,04:01～05:00,0.0399,0.0357,0.0377,
江東 (Koto),2014-11-29,03:01～04:00,0.0400,0.0354,0.0377,
江東 (Koto),2014-11-29,02:01～03:00,0.0392,0.0354,0.0378,
江東 (Koto),2014-11-29,01:01～02:00,0.0399,0.0356,0.0378,
江東 (Koto),2014-11-29,00:01～01:00,0.0403,0.0354,0.0378,
江東 (Koto),2014-11-28,23:01～24:00,0.0408,0.0357,0.0377,
江東 (Koto),2014-11-28,22:01～23:00,0.0391,0.0352,0.0373,
江東 (Koto),2014-11-28,21:01～22:00,0.0393,0.0347,0.0372,
江東 (Koto),2014-11-28,20:01～21:00,0.0403,0.0352,0.0374,
江東 (Koto),2014-11-28,19:01～20:00,0.0396,0.0352,0.0373,
江東 (Koto),2014-11-28,18:01～19:00,0.0402,0.0343,0.0374,
江東 (Koto),2014-11-28,17:01～18:00,0.0394,0.0348,0.0368,
江東 (Koto),2014-11-28,16:01～17:00,0.0405,0.0352,0.0375,
江東 (Koto),2014-11-28,15:01～16:00,0.0406,0.0353,0.0376,
江東 (Koto),2014-11-28,14:01～15:00,0.0387,0.0354,0.0373,
江東 (Koto),2014-11-28,13:01～14:00,0.0397,0.0353,0.0372,
江東 (Koto),2014-11-28,12:01～13:00,0.0397,0.0345,0.0372,
江東 (Koto),2014-11-28,11:01～12:00,0.0393,0.0354,0.0373,
江東 (Koto),2014-11-28,10:01～11:00,0.0396,0.0357,0.0375,
江東 (Koto),2014-11-28,09:01～10:00,0.0396,0.0355,0.0375,
江東 (Koto),2014-11-28,08:01～09:00,0.0398,0.0358,0.0376,
江東 (Koto),2014-11-28,07:01～08:00,0.0401,0.0351,0.0375,
江東 (Koto),2014-11-28,06:01～07:00,0.0401,0.0347,0.0375,
江東 (Koto),2014-11-28,05:01～06:00,0.0410,0.0347,0.0376,
江東 (Koto),2014-11-28,04:01～05:00,0.0392,0.0349,0.0372,
江東 (Koto),2014-11-28,03:01～04:00,0.0392,0.0352,0.0371,
江東 (Koto),2014-11-28,02:01～03:00,0.0397,0.0351,0.0374,
江東 (Koto),2014-11-28,01:01～02:00,0.0402,0.0358,0.0374,
江東 (Koto),2014-11-28,00:01～01:00,0.0399,0.0350,0.0373,
江東 (Koto),2014-11-27,23:01～24:00,0.0406,0.0350,0.0372,
江東 (Koto),2014-11-27,22:01～23:00,0.0393,0.0350,0.0373,
江東 (Koto),2014-11-27,21:01～22:00,0.0397,0.0354,0.0376,
江東 (Koto),2014-11-27,20:01～21:00,0.0399,0.0355,0.0376,
江東 (Koto),2014-11-27,19:01～20:00,0.0397,0.0355,0.0375,
江東 (Koto),2014-11-27,18:01～19:00,0.0397,0.0351,0.0372,
江東 (Koto),2014-11-27,17:01～18:00,0.0404,0.0352,0.0374,
江東 (Koto),2014-11-27,16:01～17:00,0.0399,0.0356,0.0373,
江東 (Koto),2014-11-27,15:01～16:00,0.0394,0.0355,0.0373,
江東 (Koto),2014-11-27,14:01～15:00,0.0392,0.0349,0.0370,
江東 (Koto),2014-11-27,13:01～14:00,0.0398,0.0354,0.0374,
江東 (Koto),2014-11-27,12:01～13:00,0.0392,0.0351,0.0371,
江東 (Koto),2014-11-27,11:01～12:00,0.0394,0.0352,0.0371,
江東 (Koto),2014-11-27,10:01～11:00,0.0396,0.0342,0.0369,
江東 (Koto),2014-11-27,09:01～10:00,0.0402,0.0348,0.0370,
江東 (Koto),2014-11-27,08:01～09:00,0.0397,0.0349,0.0371,
江東 (Koto),2014-11-27,07:01～08:00,0.0400,0.0348,0.0374,
江東 (Koto),2014-11-27,06:01～07:00,0.0400,0.0348,0.0374,
江東 (Koto),2014-11-27,05:01～06:00,0.0394,0.0349,0.0374,
江東 (Koto),2014-11-27,04:01～05:00,0.0402,0.0358,0.0379,
江東 (Koto),2014-11-27,03:01～04:00,0.0425,0.0380,0.0405,
江東 (Koto),2014-11-27,02:01～03:00,0.0485,0.0411,0.0447,
江東 (Koto),2014-11-27,01:01～02:00,0.0485,0.0385,0.0438,
江東 (Koto),2014-11-27,00:01～01:00,0.0409,0.0363,0.0387,
江東 (Koto),2014-11-26,23:01～24:00,0.0446,0.0383,0.0412,
江東 (Koto),2014-11-26,22:01～23:00,0.0421,0.0369,0.0398,
江東 (Koto),2014-11-26,21:01～22:00,0.0425,0.0377,0.0403,
江東 (Koto),2014-11-26,20:01～21:00,0.0422,0.0362,0.0391,
江東 (Koto),2014-11-26,19:01～20:00,0.0433,0.0372,0.0400,
江東 (Koto),2014-11-26,18:01～19:00,0.0448,0.0401,0.0425,
江東 (Koto),2014-11-26,17:01～18:00,0.0458,0.0409,0.0431,
江東 (Koto),2014-11-26,16:01～17:00,0.0493,0.0422,0.0452,
江東 (Koto),2014-11-26,15:01～16:00,0.0472,0.0416,0.0446,
江東 (Koto),2014-11-26,14:01～15:00,0.0503,0.0428,0.0460,
江東 (Koto),2014-11-26,13:01～14:00,0.0483,0.0393,0.0443,
江東 (Koto),2014-11-26,12:01～13:00,0.0439,0.0389,0.0414,
江東 (Koto),2014-11-26,11:01～12:00,0.0479,0.0409,0.0443,
江東 (Koto),2014-11-26,10:01～11:00,0.0500,0.0426,0.0457,
江東 (Koto),2014-11-26,09:01～10:00,0.0495,0.0413,0.0448,
江東 (Koto),2014-11-26,08:01～09:00,0.0478,0.0406,0.0440,
江東 (Koto),2014-11-26,07:01～08:00,0.0488,0.0426,0.0453,
江東 (Koto),2014-11-26,06:01～07:00,0.0536,0.0461,0.0496,
江東 (Koto),2014-11-26,05:01～06:00,0.0548,0.0481,0.0513,
江東 (Koto),2014-11-26,04:01～05:00,0.0572,0.0495,0.0529,
江東 (Koto),2014-11-26,03:01～04:00,0.0566,0.0473,0.0525,
江東 (Koto),2014-11-26,02:01～03:00,0.0514,0.0450,0.0485,
江東 (Koto),2014-11-26,01:01～02:00,0.0491,0.0430,0.0455,
江東 (Koto),2014-11-26,00:01～01:00,0.0486,0.0426,0.0454,
江東 (Koto),2014-11-25,23:01～24:00,0.0466,0.0414,0.0443,
江東 (Koto),2014-11-25,22:01～23:00,0.0458,0.0392,0.0419,
江東 (Koto),2014-11-25,21:01～22:00,0.0459,0.0382,0.0424,
江東 (Koto),2014-11-25,20:01～21:00,0.0442,0.0389,0.0408,
江東 (Koto),2014-11-25,19:01～20:00,0.0439,0.0378,0.0416,
江東 (Koto),2014-11-25,18:01～19:00,0.0446,0.0356,0.0385,
江東 (Koto),2014-11-25,17:01～18:00,0.0413,0.0355,0.0377,
江東 (Koto),2014-11-25,16:01～17:00,0.0403,0.0361,0.0381,
江東 (Koto),2014-11-25,15:01～16:00,0.0419,0.0369,0.0392,
江東 (Koto),2014-11-25,14:01～15:00,0.0446,0.0385,0.0418,
江東 (Koto),2014-11-25,13:01～14:00,0.0467,0.0396,0.0439,
江東 (Koto),2014-11-25,12:01～13:00,0.0470,0.0400,0.0440,
江東 (Koto),2014-11-25,11:01～12:00,0.0438,0.0373,0.0405,
江東 (Koto),2014-11-25,10:01～11:00,0.0430,0.0372,0.0395,
江東 (Koto),2014-11-25,09:01～10:00,0.0429,0.0380,0.0407,
江東 (Koto),2014-11-25,08:01～09:00,0.0433,0.0361,0.0396,
江東 (Koto),2014-11-25,07:01～08:00,0.0411,0.0365,0.0388,
江東 (Koto),2014-11-25,06:01～07:00,0.0405,0.0357,0.0382,
江東 (Koto),2014-11-25,05:01～06:00,0.0417,0.0353,0.0381,
江東 (Koto),2014-11-25,04:01～05:00,0.0411,0.0357,0.0380,
江東 (Koto),2014-11-25,03:01～04:00,0.0403,0.0359,0.0378,
江東 (Koto),2014-11-25,02:01～03:00,0.0406,0.0356,0.0379,
江東 (Koto),2014-11-25,01:01～02:00,0.0402,0.0349,0.0379,
江東 (Koto),2014-11-25,00:01～01:00,0.0409,0.0359,0.0381,
江東 (Koto),2014-11-24,23:01～24:00,0.0403,0.0359,0.0376,
江東 (Koto),2014-11-24,22:01～23:00,0.0395,0.0355,0.0379,
江東 (Koto),2014-11-24,21:01～22:00,0.0400,0.0363,0.0381,
江東 (Koto),2014-11-24,20:01～21:00,0.0403,0.0354,0.0377,
江東 (Koto),2014-11-24,19:01～20:00,0.0404,0.0355,0.0378,
江東 (Koto),2014-11-24,18:01～19:00,0.0398,0.0349,0.0377,
江東 (Koto),2014-11-24,17:01～18:00,0.0395,0.0354,0.0378,
江東 (Koto),2014-11-24,16:01～17:00,0.0404,0.0349,0.0379,
江東 (Koto),2014-11-24,15:01～16:00,0.0403,0.0358,0.0381,
江東 (Koto),2014-11-24,14:01～15:00,0.0408,0.0360,0.0381,
江東 (Koto),2014-11-24,13:01～14:00,0.0398,0.0353,0.0380,
江東 (Koto),2014-11-24,12:01～13:00,0.0399,0.0354,0.0380,
江東 (Koto),2014-11-24,11:01～12:00,0.0401,0.0361,0.0382,
江東 (Koto),2014-11-24,10:01～11:00,0.0400,0.0356,0.0379,
江東 (Koto),2014-11-24,09:01～10:00,0.0400,0.0347,0.0377,
江東 (Koto),2014-11-24,08:01～09:00,0.0406,0.0357,0.0380,
江東 (Koto),2014-11-24,07:01～08:00,0.0411,0.0356,0.0377,
江東 (Koto),2014-11-24,06:01～07:00,0.0401,0.0356,0.0377,
江東 (Koto),2014-11-24,05:01～06:00,0.0404,0.0358,0.0376,
江東 (Koto),2014-11-24,04:01～05:00,0.0413,0.0363,0.0378,
江東 (Koto),2014-11-24,03:01～04:00,0.0399,0.0352,0.0376,
江東 (Koto),2014-11-24,02:01～03:00,0.0406,0.0353,0.0377,
江東 (Koto),2014-11-24,01:01～02:00,0.0393,0.0355,0.0373,
江東 (Koto),2014-11-24,00:01～01:00,0.0395,0.0355,0.0375,
